Wind_Speed
21 20 22 26 28 29 32 35 38 39 39 42 46 52 50 53 55 57 55 55 54 53 61 70 71 61 59 61 57 41 41 46 45 52 59 69 66 73 82 71 66 69 75 67
24 22 24 27 29 32 35 39 41 43 41 43 48 50 50 49 54 56 56 56 55 55 53 56 59 59 59 59 58 52 44 44 47 51 55 64 73 71 71 71 62 67 72 80
25 24 27 31 32 35 37 40 44 49 47 42 44 49 48 47 50 50 51 51 49 48 46 50 50 53 54 54 55 55 50 43 45 48 60 58 63 74 77 73 74 66 61 71
24 28 31 34 36 38 43 42 46 50 52 55 42 52 46 43 52 51 53 51 52 51 48 46 46 47 49 51 50 52 52 47 43 46 52 63 55 62 76 81 78 81 71 66
24 29 32 35 36 39 41 41 40 44 46 46 48 47 42 38 43 57 57 59 58 56 56 56 55 50 52 51 49 50 49 45 40 48 52 61 65 49 67 79 84 84 90 80
29 29 33 36 36 36 39 40 44 42 47 56 43 45 43 36 33 38 53 66 63 61 57 49 52 54 53 50 47 48 47 45 43 47 51 53 69 67 61 57 79 85 88 85
32 31 34 40 41 41 41 41 49 51 51 59 45 54 39 29 31 40 43 45 46 49 48 46 49 49 50 51 50 48 46 45 42 44 46 52 62 66 64 59 56 64 80 90
37 37 37 43 47 46 49 46 49 55 55 54 49 53 38 37 28 35 40 43 41 43 50 51 52 45 44 43 43 44 47 47 46 45 44 46 51 61 61 60 49 54 57 57
39 40 39 45 50 54 58 60 56 64 63 51 48 34 42 35 31 29 29 30 36 34 47 49 47 44 44 35 30 34 40 46 47 45 45 44 46 52 54 61 58 55 51 49
41 43 43 47 50 52 55 56 47 43 46 46 39 26 27 31 32 35 34 38 34 43 35 45 47 49 49 45 40 46 45 44 44 44 44 44 45 46 48 49 52 50 54 49
39 43 46 47 47 47 44 39 33 38 40 41 37 27 27 28 24 29 28 31 38 41 38 42 50 50 49 48 48 49 47 44 41 41 44 46 47 47 47 48 48 48 47 50
39 45 45 43 36 36 35 33 34 33 33 37 34 23 26 23 22 26 27 33 27 36 39 39 39 42 48 48 41 36 38 39 36 34 35 39 40 42 43 45 46 46 45 44
40 42 41 39 30 29 27 29 28 31 32 34 34 35 27 28 30 30 28 35 29 37 44 41 41 41 43 41 40 35 33 38 38 36 36 36 38 37 37 38 38 39 39 39
41 38 34 33 26 26 24 25 27 30 34 33 34 29 31 26 20 31 38 40 30 34 31 43 47 50 47 45 41 40 34 35 38 39 36 36 37 36 36 37 38 38 37 36
36 32 28 21 23 25 30 28 26 32 31 35 33 33 34 27 31 32 27 32 35 38 39 45 37 44 40 41 41 38 38 37 41 38 39 38 38 37 38 39 40 41 40 39
33 26 19 14 19 24 25 22 23 22 24 27 28 29 28 30 31 31 33 34 37 40 40 42 42 43 39 48 46 43 46 50 42 35 34 41 40 42 41 42 42 43 43 42
28 22 19 15 19 21 22 19 17 18 20 21 22 24 29 29 29 28 32 33 34 38 40 39 41 41 47 47 44 45 42 42 50 42 36 36 41 46 46 46 45 45 46 47
21 22 20 17 18 17 20 16 18 20 24 22 25 28 23 17 25 29 29 28 32 35 36 39 44 46 46 44 48 55 60 52 49 45 44 35 38 46 47 48 48 48 48 48
18 18 18 17 16 13 13 15 16 21 23 26 27 29 32 31 26 26 32 37 36 36 38 40 46 46 46 43 46 53 59 61 59 59 55 51 43 43 45 50 52 51 50 49
20 16 15 17 20 19 16 16 21 27 27 31 33 34 38 40 41 37 37 38 40 41 42 45 47 47 47 50 50 51 52 62 65 64 68 62 61 59 57 56 56 56 57 54
13 15 16 20 16 18 18 22 25 32 34 34 38 41 43 46 47 47 45 43 46 46 46 47 50 51 52 55 57 52 54 55 60 58 58 56 52 54 59 59 59 60 60 60
14 13 5 13 19 23 26 32 37 40 43 45 46 47 50 51 54 56 58 56 55 54 53 55 57 55 54 55 55 53 54 54 59 59 55 58 62 66 66 62 57 56 57 57
13 12 15 18 21 25 32 36 40 48 53 55 58 58 55 52 52 53 54 57 54 53 52 51 45 40 39 41 45 48 50 49 56 63 67 68 64 63 59 59 59 59 58 57
10 14 13 17 22 27 35 40 41 50 49 44 40 41 44 43 43 40 40 34 39 41 40 38 38 32 27 29 31 31 33 35 41 48 51 49 49 50 53 52 50 48 45 45
13 13 16 19 27 29 35 40 46 43 37 38 40 36 38 38 27 30 27 25 28 26 28 29 28 27 27 29 27 27 27 28 28 29 32 37 42 45 46 47 49 45 44 44
11 13 16 20 26 35 33 37 37 33 37 38 37 36 38 35 26 18 17 16 22 23 23 24 25 25 26 27 26 24 24 24 24 26 30 35 38 33 27 33 36 37 40 31
Wind_Direction
259 265 268 271 272 272 270 268 268 264 262 262 259 258 255 253 250 252 255 251 240 235 241 243 251 256 258 261 265 256 251 256 252 241 238 236 237 239 237 242 230 236 239 236
272 276 273 271 270 272 273 274 274 273 268 263 262 261 260 257 254 253 252 250 250 250 244 242 248 249 251 254 260 263 253 253 254 244 243 238 237 238 243 237 239 237 243 242
275 277 274 276 276 277 278 281 280 279 277 267 268 263 260 257 255 249 253 252 250 252 252 248 250 252 250 249 252 255 256 250 250 251 238 244 242 239 238 242 242 240 249 249
278 276 277 275 277 281 280 283 284 285 284 281 274 273 259 258 251 240 245 252 248 249 250 248 248 250 252 254 252 253 252 251 244 243 242 241 252 247 243 239 240 245 246 251
270 276 276 277 278 278 285 283 284 288 282 271 275 273 276 261 251 245 240 246 252 255 252 249 247 244 245 247 253 252 254 255 245 240 239 236 238 250 246 244 241 242 246 246
271 268 278 280 284 288 288 280 281 279 276 272 279 270 277 261 259 246 244 243 253 255 258 250 244 241 243 246 246 249 252 252 248 246 244 241 236 239 248 252 247 246 250 249
279 286 295 296 298 297 294 291 286 285 278 281 278 268 267 274 270 254 244 245 244 249 243 244 244 243 244 245 244 243 246 249 248 249 247 243 239 240 246 252 255 255 254 253
294 297 294 294 293 293 291 284 284 279 285 278 281 279 276 257 260 252 240 248 245 239 235 237 241 241 248 252 254 256 251 246 245 244 248 248 245 243 246 249 251 257 259 264
285 289 293 292 296 296 293 287 280 280 285 290 288 276 279 253 259 260 256 252 249 236 228 234 240 242 247 247 251 260 258 253 247 244 245 246 247 245 245 247 250 250 252 259
283 288 292 293 294 290 283 284 282 276 277 285 285 271 259 266 253 259 266 252 253 232 215 229 240 244 248 253 259 264 259 260 252 248 247 248 247 247 246 245 246 249 251 251
281 289 291 292 291 287 284 286 279 277 278 276 277 272 279 257 254 265 247 260 253 257 226 222 229 234 241 245 253 253 247 242 239 238 244 248 248 247 247 246 245 248 248 250
283 286 291 293 295 285 281 281 260 275 277 273 271 268 286 267 259 242 243 250 248 226 226 222 232 237 241 245 247 249 245 245 240 241 238 241 243 246 246 247 248 247 249 251
290 292 298 299 305 294 296 285 272 270 271 268 268 279 289 270 270 256 260 264 261 256 237 227 236 242 247 254 263 266 264 257 254 246 241 239 241 243 246 245 246 247 246 248
289 297 298 300 298 292 291 282 275 270 276 280 272 276 282 278 262 248 245 253 254 253 249 227 237 241 249 251 251 248 249 258 259 256 247 241 241 243 244 250 249 245 245 245
293 297 295 295 295 290 286 287 284 277 281 277 281 274 272 270 268 265 249 253 257 264 264 258 267 237 243 243 244 251 261 259 253 254 255 252 247 243 242 240 244 249 250 249
294 296 291 297 295 292 295 281 283 293 291 284 283 285 280 266 264 255 259 262 259 257 259 264 264 256 249 243 253 260 268 267 252 248 250 249 247 246 243 243 243 245 245 247
291 287 286 308 295 302 295 291 284 292 295 283 277 279 281 277 268 266 265 265 274 262 256 258 265 268 252 249 256 257 256 263 250 251 263 256 249 245 246 245 243 242 245 248
283 289 289 300 294 302 296 294 283 282 286 294 287 278 278 276 271 264 276 253 275 261 260 249 252 252 260 258 256 258 261 262 243 256 266 258 255 248 247 247 246 243 242 243
277 291 286 289 293 299 307 313 303 294 290 294 292 287 292 284 282 280 278 271 268 263 261 265 260 252 256 262 262 250 254 260 260 259 263 262 263 251 251 253 251 250 248 245
269 278 286 280 296 299 304 299 298 294 296 293 291 287 285 283 279 275 269 273 272 267 262 261 259 260 260 262 266 257 252 249 256 261 260 261 262 252 259 259 255 253 250 248
266 277 284 293 306 303 302 306 301 298 299 296 292 289 286 282 280 276 271 265 265 266 266 264 260 260 258 258 258 255 256 256 252 263 255 256 258 257 260 263 262 258 255 251
271 265 305 288 296 297 298 302 302 298 296 294 292 289 283 279 275 273 272 271 267 263 260 260 263 267 268 268 269 266 261 256 253 255 252 255 255 261 264 263 261 257 253 251
266 265 269 286 299 307 304 304 306 305 304 301 298 295 293 287 283 280 277 271 266 263 261 260 261 262 266 266 264 263 260 252 248 247 252 255 257 259 259 258 257 257 256 255
264 267 278 294 303 318 311 310 309 309 308 306 306 308 304 299 299 293 282 267 259 259 253 254 260 260 259 258 261 261 256 251 246 244 247 250 255 257 257 257 256 251 247 245
264 277 299 304 308 319 313 315 310 314 313 309 308 306 302 301 308 293 289 273 261 252 250 253 246 252 252 266 264 263 260 255 253 249 249 250 254 256 257 254 252 248 245 240
266 282 293 308 317 312 321 320 321 317 316 317 304 298 303 309 297 316 312 281 249 243 241 248 248 252 257 266 256 257 256 251 241 243 247 248 249 250 261 250 247 242 228 226
Height
5748 5749 5747 5746 5744 5744 5742 5741 5740 5742 5744 5741 5739 5738 5746 5745 5740 5742 5747 5749 5756 5761 5760 5759 5761 5766 5768 5769 5774 5788 5789 5789 5788 5792 5798 5801 5805 5808 5814 5815 5818 5822 5826 5825
5742 5743 5740 5739 5737 5734 5733 5731 5730 5730 5732 5728 5728 5726 5731 5733 5730 5732 5735 5737 5740 5744 5747 5752 5752 5754 5758 5760 5763 5768 5777 5778 5777 5778 5784 5787 5792 5795 5796 5803 5804 5809 5811 5816
5737 5737 5733 5730 5728 5726 5724 5720 5717 5715 5715 5716 5712 5710 5716 5721 5719 5721 5724 5727 5727 5730 5731 5734 5737 5741 5745 5751 5753 5757 5762 5767 5768 5768 5771 5775 5779 5782 5786 5789 5795 5800 5801 5801
5731 5727 5725 5722 5720 5717 5714 5712 5708 5705 5702 5699 5704 5692 5703 5709 5708 5709 5713 5715 5716 5719 5721 5720 5723 5727 5733 5736 5741 5745 5748 5753 5755 5757 5760 5764 5765 5769 5772 5776 5782 5783 5785 5793
5724 5720 5716 5714 5711 5709 5706 5703 5699 5696 5692 5689 5689 5685 5689 5693 5694 5698 5700 5702 5704 5707 5710 5709 5711 5716 5721 5724 5728 5732 5737 5739 5742 5742 5746 5748 5752 5755 5758 5761 5767 5768 5775 5778
5713 5713 5708 5704 5702 5701 5697 5693 5690 5687 5682 5674 5682 5678 5674 5679 5684 5685 5687 5689 5691 5693 5696 5695 5699 5703 5710 5715 5719 5721 5723 5726 5729 5731 5733 5736 5738 5743 5747 5749 5754 5758 5760 5767
5702 5703 5699 5692 5690 5688 5687 5684 5676 5672 5673 5665 5673 5664 5664 5670 5669 5668 5670 5672 5674 5679 5683 5685 5688 5692 5697 5702 5705 5708 5711 5713 5717 5719 5721 5724 5727 5731 5736 5739 5741 5745 5750 5755
5689 5689 5690 5686 5682 5679 5675 5674 5671 5659 5654 5653 5654 5650 5655 5658 5659 5657 5654 5657 5659 5662 5668 5673 5678 5681 5685 5688 5691 5694 5698 5701 5705 5707 5709 5711 5715 5719 5724 5728 5731 5735 5737 5739
5683 5681 5681 5676 5672 5669 5662 5658 5657 5650 5645 5638 5640 5642 5646 5648 5647 5649 5651 5649 5649 5653 5659 5664 5668 5671 5675 5679 5681 5683 5683 5686 5689 5693 5697 5701 5703 5707 5711 5717 5720 5724 5726 5730
5675 5670 5670 5667 5663 5659 5649 5644 5642 5640 5634 5631 5631 5633 5636 5637 5637 5638 5640 5640 5643 5643 5647 5652 5656 5659 5664 5669 5673 5673 5673 5675 5676 5681 5686 5690 5693 5696 5700 5704 5708 5711 5715 5718
5666 5662 5661 5658 5652 5644 5638 5634 5631 5630 5628 5625 5623 5624 5625 5624 5628 5628 5632 5633 5634 5634 5636 5641 5646 5649 5654 5658 5661 5662 5662 5665 5667 5670 5674 5678 5681 5685 5689 5692 5696 5700 5704 5706
5659 5654 5649 5646 5640 5632 5627 5624 5622 5621 5621 5618 5615 5618 5622 5618 5618 5619 5623 5625 5621 5625 5628 5629 5632 5634 5639 5646 5648 5648 5650 5651 5655 5658 5663 5665 5669 5673 5677 5680 5684 5688 5691 5694
5647 5642 5637 5631 5630 5622 5618 5616 5614 5613 5611 5611 5609 5613 5611 5611 5612 5613 5613 5615 5616 5616 5617 5619 5623 5625 5628 5631 5634 5636 5638 5640 5643 5647 5651 5655 5657 5661 5665 5669 5672 5675 5679 5682
5636 5633 5628 5624 5621 5617 5615 5612 5609 5606 5604 5605 5603 5604 5605 5605 5606 5603 5606 5606 5607 5610 5608 5609 5610 5615 5619 5622 5626 5628 5630 5630 5632 5635 5639 5643 5647 5652 5655 5658 5660 5663 5667 5671
5627 5624 5619 5617 5614 5610 5606 5605 5603 5599 5599 5595 5599 5596 5596 5597 5595 5597 5599 5600 5598 5599 5601 5601 5602 5605 5609 5612 5614 5615 5617 5620 5621 5624 5626 5630 5633 5636 5642 5647 5650 5653 5657 5662
5618 5616 5612 5611 5607 5603 5600 5598 5595 5594 5591 5587 5587 5587 5586 5585 5585 5587 5588 5589 5589 5588 5588 5589 5592 5600 5598 5600 5601 5604 5607 5609 5610 5612 5614 5616 5621 5624 5628 5634 5638 5642 5645 5649
5611 5607 5605 5605 5601 5598 5595 5592 5591 5589 5586 5583 5582 5581 5579 5575 5576 5579 5578 5578 5578 5579 5579 5580 5580 5581 5586 5587 5589 5590 5592 5596 5599 5602 5605 5605 5608 5612 5615 5620 5625 5630 5633 5637
5604 5602 5600 5599 5596 5595 5589 5588 5585 5584 5580 5578 5576 5573 5570 5569 5569 5569 5567 5566 5567 5566 5566 5568 5569 5569 5570 5573 5574 5577 5578 5583 5587 5588 5591 5594 5596 5601 5604 5608 5611 5616 5621 5625
5598 5597 5595 5593 5592 5591 5587 5584 5581 5577 5578 5573 5570 5566 5562 5561 5560 5559 5559 5558 5557 5556 5555 5555 5555 5556 5557 5559 5561 5563 5564 5565 5572 5575 5576 5580 5585 5589 5593 5597 5599 5602 5606 5612
5594 5593 5591 5589 5587 5584 5583 5580 5576 5571 5570 5567 5563 5559 5554 5550 5547 5550 5547 5544 5543 5543 5542 5542 5540 5541 5542 5544 5544 5545 5548 5552 5556 5558 5560 5564 5568 5573 5576 5580 5584 5587 5592 5598
5588 5587 5586 5584 5581 5580 5576 5574 5570 5566 5563 5558 5552 5546 5542 5537 5533 5530 5529 5530 5527 5525 5524 5524 5524 5525 5527 5527 5526 5530 5533 5537 5538 5539 5542 5547 5552 5556 5558 5560 5564 5567 5572 5578
5583 5583 5582 5580 5577 5575 5571 5567 5561 5555 5550 5544 5538 5533 5528 5523 5518 5513 5509 5507 5507 5508 5507 5507 5506 5507 5507 5507 5506 5511 5516 5521 5522 5525 5528 5532 5535 5537 5538 5539 5543 5546 5551 5557
5579 5579 5578 5577 5574 5570 5564 5557 5551 5542 5535 5528 5519 5513 5506 5499 5494 5489 5485 5482 5482 5483 5485 5488 5490 5492 5492 5492 5492 5491 5493 5495 5500 5506 5511 5513 5515 5517 5518 5519 5523 5526 5531 5537
5575 5574 5575 5574 5570 5565 5557 5550 5542 5532 5522 5514 5505 5498 5490 5483 5477 5471 5464 5462 5462 5465 5469 5473 5476 5480 5480 5479 5478 5478 5479 5479 5482 5486 5491 5495 5497 5498 5499 5500 5503 5508 5513 5520
5572 5572 5571 5569 5564 5561 5551 5542 5532 5522 5512 5504 5496 5486 5477 5469 5465 5457 5452 5450 5451 5454 5459 5462 5465 5468 5470 5469 5470 5469 5469 5470 5472 5475 5478 5480 5481 5482 5482 5483 5486 5491 5497 5503
5570 5570 5568 5566 5561 5552 5545 5534 5523 5513 5504 5495 5485 5478 5469 5460 5455 5448 5445 5442 5443 5446 5450 5453 5456 5459 5460 5461 5462 5461 5461 5462 5464 5466 5468 5469 5469 5469 5468 5467 5471 5475 5483 5490